DLH8WF EDDB-EDDM

Flight info

Callsign DLH8WF
Flight time 0h 53m
Altitude 28000
Route LUROS3Q LUROS Y211 BEBKU Z36 MAREM DCT VESUB T106 TUSTO T108 LANDU LANDU2B
Aircraft A21N/M-SDE2E3FGIJ1LORWXYZ/HB1

Departure

Time 2026-05-07 12:42
Airport Berlin Brandenburg Airport (EDDB)

Arrival

Time 2026-05-07 13:35
Airport Munich Airport (EDDM)
Time Latitude Longitude Altitude Speed Heading
2026-05-07 12:05 52.36466 13.50535 160 ft 0 kts 69°
2026-05-07 12:29 52.36466 13.50533 160 ft 2 kts 69°
2026-05-07 12:29 52.36457 13.50495 160 ft 4 kts 69°
2026-05-07 12:29 52.36449 13.50461 160 ft 4 kts 72°
2026-05-07 12:29 52.36446 13.50421 160 ft 4 kts 108°
2026-05-07 12:30 52.36460 13.50390 160 ft 3 kts 155°
2026-05-07 12:30 52.36464 13.50387 160 ft 0 kts 159°
2026-05-07 12:32 52.36459 13.50390 160 ft 3 kts 159°
2026-05-07 12:32 52.36422 13.50414 160 ft 8 kts 159°
2026-05-07 12:33 52.36252 13.50521 160 ft 16 kts 159°
2026-05-07 12:33 52.36148 13.50588 160 ft 16 kts 159°
2026-05-07 12:33 52.36039 13.50656 160 ft 17 kts 158°
2026-05-07 12:34 52.35924 13.50729 160 ft 18 kts 159°
2026-05-07 12:34 52.35817 13.50760 160 ft 16 kts 218°
2026-05-07 12:34 52.35766 13.50593 160 ft 17 kts 249°
2026-05-07 12:34 52.35722 13.50408 160 ft 18 kts 249°
2026-05-07 12:35 52.35676 13.50214 160 ft 19 kts 248°
2026-05-07 12:35 52.35627 13.50012 160 ft 19 kts 248°
2026-05-07 12:35 52.35577 13.49798 160 ft 21 kts 249°
2026-05-07 12:35 52.35522 13.49569 160 ft 22 kts 249°
2026-05-07 12:36 52.35465 13.49328 160 ft 24 kts 249°
2026-05-07 12:36 52.35404 13.49068 160 ft 25 kts 249°
2026-05-07 12:36 52.35338 13.48794 160 ft 27 kts 250°
2026-05-07 12:36 52.35269 13.48500 160 ft 28 kts 249°
2026-05-07 12:37 52.35198 13.48200 160 ft 29 kts 249°
2026-05-07 12:37 52.35122 13.47882 160 ft 29 kts 249°
2026-05-07 12:37 52.35057 13.47608 160 ft 26 kts 249°
2026-05-07 12:37 52.34988 13.47323 160 ft 27 kts 249°
2026-05-07 12:38 52.34921 13.47039 160 ft 22 kts 249°
2026-05-07 12:38 52.34865 13.46804 160 ft 23 kts 249°
2026-05-07 12:38 52.34815 13.46604 160 ft 14 kts 230°
2026-05-07 12:38 52.34724 13.46603 160 ft 11 kts 158°
2026-05-07 12:39 52.34681 13.46631 160 ft 6 kts 158°
2026-05-07 12:39 52.34677 13.46634 160 ft 0 kts 157°
2026-05-07 12:40 52.34675 13.46635 160 ft 1 kts 157°
2026-05-07 12:40 52.34655 13.46649 160 ft 5 kts 157°
2026-05-07 12:40 52.34620 13.46704 160 ft 9 kts 119°
2026-05-07 12:41 52.34589 13.46817 160 ft 13 kts 114°
2026-05-07 12:41 52.34573 13.46974 160 ft 16 kts 70°
2026-05-07 12:41 52.34655 13.47323 160 ft 67 kts 68°
2026-05-07 12:41 52.34919 13.48428 160 ft 138 kts 68°
2026-05-07 12:42 52.35291 13.50024 551 ft 152 kts 67°
2026-05-07 12:42 52.35567 13.51683 1279 ft 155 kts 86°
2026-05-07 12:42 52.35242 13.53416 1829 ft 170 kts 120°
2026-05-07 12:42 52.34386 13.54874 2414 ft 185 kts 133°
2026-05-07 12:43 52.33407 13.56381 3054 ft 197 kts 131°
2026-05-07 12:43 52.32405 13.57976 3767 ft 204 kts 133°
2026-05-07 12:43 52.31403 13.59653 4553 ft 208 kts 128°
2026-05-07 12:43 52.30763 13.61763 5339 ft 211 kts 100°
2026-05-07 12:44 52.30926 13.64127 5960 ft 220 kts 71°
2026-05-07 12:44 52.31450 13.66553 6592 ft 231 kts 70°
2026-05-07 12:44 52.31981 13.69058 7343 ft 235 kts 71°
2026-05-07 12:44 52.32503 13.71616 8166 ft 238 kts 72°
2026-05-07 12:45 52.32900 13.74259 8961 ft 243 kts 84°
2026-05-07 12:45 52.32883 13.77120 9435 ft 261 kts 93°
2026-05-07 12:45 52.32753 13.80181 9973 ft 277 kts 94°
2026-05-07 12:45 52.32617 13.83369 10708 ft 284 kts 94°
2026-05-07 12:46 52.32486 13.86625 11503 ft 289 kts 94°
2026-05-07 12:46 52.32359 13.89925 12302 ft 293 kts 94°
2026-05-07 12:46 52.32231 13.93270 13086 ft 297 kts 94°
2026-05-07 12:46 52.32104 13.96658 13856 ft 301 kts 95°
2026-05-07 12:47 52.31974 14.00104 14497 ft 307 kts 95°
2026-05-07 12:47 52.31682 14.03606 15029 ft 313 kts 109°
2026-05-07 12:47 52.30703 14.06749 15673 ft 312 kts 131°
2026-05-07 12:47 52.29050 14.09042 16140 ft 318 kts 154°
2026-05-07 12:48 52.26905 14.10125 16430 ft 332 kts 173°
2026-05-07 12:48 52.24553 14.10541 16688 ft 349 kts 175°
2026-05-07 12:48 52.22076 14.10927 16926 ft 366 kts 175°
2026-05-07 12:48 52.19491 14.11384 17155 ft 382 kts 174°
2026-05-07 12:49 52.16800 14.11902 17367 ft 397 kts 174°
2026-05-07 12:49 52.14016 14.12464 17663 ft 408 kts 174°
2026-05-07 12:49 52.11184 14.13055 18196 ft 412 kts 174°
2026-05-07 12:49 52.09293 14.13453 18530 ft 414 kts 174°
2026-05-07 12:50 52.06426 14.14052 19008 ft 417 kts 174°
2026-05-07 12:50 52.03532 14.14652 19453 ft 420 kts 174°
2026-05-07 12:50 52.00617 14.15251 19890 ft 424 kts 173°
2026-05-07 12:50 51.97686 14.15851 20291 ft 427 kts 173°
2026-05-07 12:51 51.94729 14.16460 20700 ft 430 kts 173°
2026-05-07 12:51 51.91739 14.16831 21156 ft 432 kts 180°
2026-05-07 12:51 51.88743 14.16323 21631 ft 435 kts 192°
2026-05-07 12:51 51.85851 14.14814 22123 ft 439 kts 202°
2026-05-07 12:52 51.83044 14.12836 22626 ft 442 kts 204°
2026-05-07 12:52 51.80226 14.10812 23074 ft 445 kts 204°
2026-05-07 12:52 51.77376 14.08802 23533 ft 448 kts 203°
2026-05-07 12:52 51.74501 14.06805 23954 ft 451 kts 203°
2026-05-07 12:53 51.71610 14.04812 24371 ft 453 kts 203°
2026-05-07 12:53 51.68707 14.02822 24851 ft 453 kts 202°
2026-05-07 12:53 51.65818 14.00839 25468 ft 450 kts 203°
2026-05-07 12:53 51.62948 13.98865 26093 ft 446 kts 203°
2026-05-07 12:54 51.60102 13.96910 26690 ft 444 kts 203°
2026-05-07 12:54 51.57267 13.94968 27264 ft 442 kts 203°
2026-05-07 12:54 51.54442 13.93038 27773 ft 441 kts 203°
2026-05-07 12:54 51.51619 13.91111 27982 ft 441 kts 203°
2026-05-07 12:55 51.45942 13.87375 28009 ft 441 kts 198°
2026-05-07 12:55 51.42963 13.86227 27998 ft 440 kts 191°
2026-05-07 12:55 51.39947 13.85347 27991 ft 440 kts 191°
2026-05-07 12:56 51.36932 13.84501 27980 ft 440 kts 191°
2026-05-07 12:56 51.33912 13.83646 27982 ft 441 kts 191°
2026-05-07 12:56 51.30897 13.82784 27989 ft 440 kts 191°
2026-05-07 12:56 51.27884 13.81918 27997 ft 440 kts 191°
2026-05-07 12:57 51.24870 13.81052 27994 ft 440 kts 191°
2026-05-07 12:57 51.21858 13.80188 27999 ft 440 kts 191°
2026-05-07 12:57 51.18852 13.79327 27998 ft 439 kts 191°
2026-05-07 12:57 51.15846 13.78466 27992 ft 439 kts 191°
2026-05-07 12:58 51.12842 13.77605 27993 ft 439 kts 191°
2026-05-07 12:58 51.09834 13.76747 27995 ft 439 kts 191°
2026-05-07 12:58 51.06829 13.75890 27988 ft 439 kts 191°
2026-05-07 12:58 51.03822 13.75032 27991 ft 439 kts 191°
2026-05-07 12:59 51.00811 13.74175 27988 ft 440 kts 191°
2026-05-07 12:59 50.97806 13.73323 27989 ft 437 kts 190°
2026-05-07 12:59 50.94808 13.72474 27984 ft 437 kts 190°
2026-05-07 12:59 50.91815 13.71624 27977 ft 437 kts 190°
2026-05-07 13:00 50.88870 13.70686 27965 ft 438 kts 194°
2026-05-07 13:00 50.85932 13.69403 27970 ft 437 kts 196°
2026-05-07 13:00 50.82968 13.68058 27965 ft 437 kts 196°
2026-05-07 13:00 50.80084 13.66749 27954 ft 437 kts 196°
2026-05-07 13:01 50.77156 13.65424 27956 ft 437 kts 196°
2026-05-07 13:01 50.74225 13.64102 27950 ft 439 kts 196°
2026-05-07 13:01 50.71249 13.62741 27941 ft 439 kts 197°
2026-05-07 13:01 50.68374 13.61312 27946 ft 439 kts 197°
2026-05-07 13:02 50.65458 13.59851 27942 ft 440 kts 197°
2026-05-07 13:02 50.62545 13.58393 27941 ft 440 kts 197°
2026-05-07 13:02 50.59628 13.56936 27941 ft 440 kts 197°
2026-05-07 13:02 50.56711 13.55481 27936 ft 440 kts 197°
2026-05-07 13:03 50.53754 13.54012 27942 ft 441 kts 197°
2026-05-07 13:03 50.50875 13.52583 27938 ft 440 kts 197°
2026-05-07 13:03 50.47953 13.51132 27937 ft 440 kts 197°
2026-05-07 13:03 50.45029 13.49685 27941 ft 442 kts 197°
2026-05-07 13:04 50.42101 13.48237 27942 ft 441 kts 197°
2026-05-07 13:04 50.39181 13.46792 27939 ft 439 kts 197°
2026-05-07 13:04 50.36260 13.45348 27933 ft 440 kts 197°
2026-05-07 13:04 50.33337 13.43907 27936 ft 441 kts 197°
2026-05-07 13:05 50.30413 13.42466 27937 ft 440 kts 197°
2026-05-07 13:05 50.27492 13.41027 27941 ft 439 kts 197°
2026-05-07 13:05 50.24533 13.39577 27940 ft 440 kts 197°
2026-05-07 13:05 50.21605 13.38146 27943 ft 441 kts 197°
2026-05-07 13:06 50.18685 13.36718 27951 ft 441 kts 197°
2026-05-07 13:06 50.15765 13.35285 27951 ft 439 kts 197°
2026-05-07 13:06 50.12844 13.33859 27947 ft 440 kts 197°
2026-05-07 13:06 50.09917 13.32428 27953 ft 441 kts 198°
2026-05-07 13:07 50.07037 13.31023 27952 ft 439 kts 197°
2026-05-07 13:07 50.04095 13.29592 27955 ft 437 kts 197°
2026-05-07 13:07 50.01189 13.28182 27956 ft 438 kts 197°
2026-05-07 13:07 49.98263 13.26761 27952 ft 440 kts 197°
2026-05-07 13:08 49.95383 13.25363 27956 ft 439 kts 197°
2026-05-07 13:08 49.92475 13.23954 27964 ft 437 kts 197°
2026-05-07 13:08 49.89559 13.22541 27966 ft 438 kts 197°
2026-05-07 13:08 49.86642 13.21133 27968 ft 439 kts 198°
2026-05-07 13:09 49.83727 13.19726 27969 ft 439 kts 198°
2026-05-07 13:09 49.80807 13.18322 27965 ft 439 kts 198°
2026-05-07 13:09 49.77890 13.16919 27966 ft 439 kts 198°
2026-05-07 13:09 49.74974 13.15516 27963 ft 439 kts 198°
2026-05-07 13:10 49.72056 13.14113 27963 ft 439 kts 198°
2026-05-07 13:10 49.69141 13.12717 27964 ft 439 kts 198°
2026-05-07 13:10 49.66224 13.11319 27974 ft 440 kts 199°
2026-05-07 13:10 49.63296 13.09918 27976 ft 440 kts 199°
2026-05-07 13:11 49.60370 13.08521 27975 ft 440 kts 199°
2026-05-07 13:11 49.57441 13.07126 27984 ft 441 kts 199°
2026-05-07 13:11 49.54513 13.05734 27985 ft 441 kts 199°
2026-05-07 13:11 49.51581 13.04337 27986 ft 441 kts 199°
2026-05-07 13:12 49.48648 13.02939 27991 ft 441 kts 199°
2026-05-07 13:12 49.45711 13.01544 27973 ft 441 kts 199°
2026-05-07 13:12 49.42792 13.00144 27985 ft 439 kts 200°
2026-05-07 13:12 49.39975 12.98354 27987 ft 438 kts 206°
2026-05-07 13:13 49.37222 12.96354 27992 ft 438 kts 207°
2026-05-07 13:13 49.34478 12.94340 27990 ft 438 kts 207°
2026-05-07 13:13 49.31728 12.92327 27998 ft 437 kts 207°
2026-05-07 13:13 49.28983 12.90324 27991 ft 438 kts 207°
2026-05-07 13:14 49.26230 12.88324 27994 ft 438 kts 207°
2026-05-07 13:14 49.23480 12.86331 27996 ft 437 kts 207°
2026-05-07 13:14 49.20736 12.84340 27998 ft 436 kts 207°
2026-05-07 13:14 49.17999 12.82354 28005 ft 436 kts 207°
2026-05-07 13:15 49.12519 12.78388 28005 ft 436 kts 207°
2026-05-07 13:15 49.07039 12.74425 28009 ft 436 kts 207°
2026-05-07 13:16 49.01549 12.70470 28001 ft 438 kts 207°
2026-05-07 13:16 48.96030 12.66513 28009 ft 438 kts 207°
2026-05-07 13:17 48.90506 12.62559 28011 ft 439 kts 207°
2026-05-07 13:17 48.84971 12.58624 28013 ft 439 kts 207°
2026-05-07 13:18 48.82204 12.56655 28000 ft 440 kts 207°
2026-05-07 13:18 48.79435 12.54689 28007 ft 440 kts 207°
2026-05-07 13:18 48.73778 12.51133 28013 ft 441 kts 201°
2026-05-07 13:19 48.68034 12.47882 28009 ft 440 kts 207°
2026-05-07 13:19 48.65423 12.45513 28005 ft 438 kts 218°
2026-05-07 13:19 48.63236 12.42432 28006 ft 436 kts 230°
2026-05-07 13:20 48.61488 12.38625 28001 ft 435 kts 241°
2026-05-07 13:20 48.60320 12.34412 28001 ft 436 kts 252°
2026-05-07 13:20 48.59736 12.29986 27950 ft 436 kts 262°
2026-05-07 13:20 48.59419 12.25446 27483 ft 433 kts 263°
2026-05-07 13:21 48.59127 12.20972 26438 ft 427 kts 264°
2026-05-07 13:21 48.58821 12.16509 25116 ft 428 kts 264°
2026-05-07 13:21 48.58501 12.12014 23741 ft 432 kts 263°
2026-05-07 13:21 48.58171 12.07501 22319 ft 432 kts 263°
2026-05-07 13:22 48.57841 12.03024 21152 ft 425 kts 263°
2026-05-07 13:22 48.57514 11.98630 20074 ft 417 kts 263°
2026-05-07 13:22 48.57189 11.94321 19024 ft 410 kts 263°
2026-05-07 13:22 48.56869 11.90077 17904 ft 404 kts 263°
2026-05-07 13:23 48.56528 11.85903 16719 ft 397 kts 259°
2026-05-07 13:23 48.55704 11.81968 15601 ft 392 kts 245°
2026-05-07 13:23 48.54227 11.78533 14642 ft 391 kts 230°
2026-05-07 13:23 48.52192 11.75850 13891 ft 388 kts 216°
2026-05-07 13:24 48.49763 11.74139 13188 ft 385 kts 199°
2026-05-07 13:24 48.47140 11.73545 12490 ft 379 kts 182°
2026-05-07 13:24 48.44574 11.74154 11833 ft 371 kts 165°
2026-05-07 13:24 48.42313 11.75928 11193 ft 365 kts 145°
2026-05-07 13:25 48.40600 11.78664 10576 ft 357 kts 125°
2026-05-07 13:25 48.39633 11.82060 10181 ft 351 kts 104°
2026-05-07 13:25 48.39498 11.85647 9838 ft 337 kts 82°
2026-05-07 13:25 48.40107 11.88949 9415 ft 321 kts 67°
2026-05-07 13:26 48.40964 11.91960 9049 ft 306 kts 65°
2026-05-07 13:26 48.41828 11.94818 8734 ft 294 kts 64°
2026-05-07 13:26 48.42658 11.97556 8427 ft 283 kts 64°
2026-05-07 13:26 48.43462 12.00213 8093 ft 274 kts 64°
2026-05-07 13:27 48.44238 12.02793 7800 ft 266 kts 64°
2026-05-07 13:27 48.44988 12.05303 7437 ft 261 kts 64°
2026-05-07 13:27 48.45726 12.07778 6896 ft 258 kts 64°
2026-05-07 13:27 48.46456 12.10231 6316 ft 256 kts 64°
2026-05-07 13:28 48.47003 12.12764 5717 ft 255 kts 85°
2026-05-07 13:28 48.46775 12.15385 5192 ft 254 kts 114°
2026-05-07 13:28 48.45780 12.17521 4764 ft 248 kts 143°
2026-05-07 13:28 48.44307 12.18670 4363 ft 240 kts 171°
2026-05-07 13:29 48.42696 12.18611 4020 ft 230 kts 201°
2026-05-07 13:29 48.41383 12.17372 3968 ft 222 kts 230°
2026-05-07 13:29 48.40382 12.15651 3974 ft 216 kts 234°
2026-05-07 13:29 48.39548 12.13884 3961 ft 195 kts 248°
2026-05-07 13:30 48.39115 12.11992 3971 ft 194 kts 258°
2026-05-07 13:30 48.38873 12.10021 3983 ft 189 kts 264°
2026-05-07 13:30 48.38689 12.08028 3997 ft 191 kts 264°
2026-05-07 13:30 48.38529 12.06042 4002 ft 189 kts 265°
2026-05-07 13:31 48.38387 12.04212 4018 ft 170 kts 264°
2026-05-07 13:31 48.38251 12.02437 3997 ft 173 kts 264°
2026-05-07 13:31 48.38115 12.00678 3911 ft 161 kts 265°
2026-05-07 13:31 48.37992 11.99068 3767 ft 154 kts 266°
2026-05-07 13:32 48.37874 11.97526 3539 ft 146 kts 264°
2026-05-07 13:32 48.37766 11.96107 3348 ft 130 kts 265°
2026-05-07 13:32 48.37665 11.94781 3173 ft 127 kts 266°
2026-05-07 13:32 48.37564 11.93460 3001 ft 127 kts 266°
2026-05-07 13:33 48.37463 11.92145 2830 ft 126 kts 266°
2026-05-07 13:33 48.37362 11.90811 2673 ft 126 kts 266°
2026-05-07 13:33 48.37261 11.89514 2474 ft 127 kts 266°
2026-05-07 13:33 48.37159 11.88196 2325 ft 127 kts 266°
2026-05-07 13:34 48.37064 11.86885 2143 ft 126 kts 266°
2026-05-07 13:34 48.36854 11.84227 1776 ft 129 kts 266°
2026-05-07 13:34 48.36749 11.82923 1645 ft 125 kts 266°
2026-05-07 13:35 48.36648 11.81624 1493 ft 120 kts 267°
2026-05-07 13:35 48.36581 11.80715 1478 ft 51 kts 263°
2026-05-07 13:35 48.36554 11.80366 1484 ft 48 kts 263°
2026-05-07 13:35 48.36520 11.79943 1479 ft 33 kts 257°
2026-05-07 13:36 48.36447 11.79699 1491 ft 22 kts 237°
2026-05-07 13:36 48.36360 11.79519 1486 ft 20 kts 233°
2026-05-07 13:36 48.36283 11.79362 1477 ft 19 kts 233°
2026-05-07 13:36 48.36172 11.79302 1482 ft 18 kts 172°
2026-05-07 13:37 48.36043 11.79324 1487 ft 17 kts 173°
2026-05-07 13:37 48.35934 11.79350 1483 ft 14 kts 158°
2026-05-07 13:37 48.35833 11.79388 1491 ft 16 kts 173°
2026-05-07 13:37 48.35714 11.79408 1477 ft 18 kts 173°
2026-05-07 13:38 48.35583 11.79431 1491 ft 19 kts 173°
2026-05-07 13:38 48.35444 11.79455 1479 ft 21 kts 173°
2026-05-07 13:38 48.35293 11.79481 1477 ft 21 kts 173°
2026-05-07 13:38 48.35173 11.79502 1485 ft 15 kts 173°
2026-05-07 13:39 48.35079 11.79519 1482 ft 10 kts 173°
2026-05-07 13:39 48.35028 11.79493 1475 ft 10 kts 265°
2026-05-07 13:39 48.35022 11.79398 1491 ft 6 kts 263°
2026-05-07 13:39 48.35020 11.79374 1491 ft 0 kts 263°